TimeEST,TemperatureF,Dew PointF,Humidity,Sea Level PressureIn,VisibilityMPH,Wind Direction,Wind SpeedMPH,Gust SpeedMPH,PrecipitationIn,Events,Conditions,WindDirDegrees,DateUTC
12:14 AM,30.2,23.4,76,29.83,10.0,WSW,5.8,-,N/A,,Overcast,240,2013-02-13 05:14:00
12:34 AM,30.2,23.9,77,29.83,10.0,WSW,9.2,-,N/A,,Overcast,240,2013-02-13 05:34:00
12:54 AM,30.0,23.9,78,29.82,10.0,WSW,9.2,-,N/A,,Overcast,240,2013-02-13 05:54:00
1:14 AM,30.2,23.9,77,29.82,10.0,SW,4.6,-,N/A,,Overcast,220,2013-02-13 06:14:00
1:34 AM,30.6,24.3,77,29.82,10.0,SSW,6.9,-,N/A,,Overcast,210,2013-02-13 06:34:00
1:54 AM,30.9,24.6,77,29.81,10.0,SW,9.2,-,N/A,,Overcast,230,2013-02-13 06:54:00
2:14 AM,31.5,24.8,76,29.80,10.0,WSW,10.4,-,N/A,,Overcast,240,2013-02-13 07:14:00
2:34 AM,32.0,25.5,77,29.80,10.0,SW,8.1,-,N/A,,Overcast,230,2013-02-13 07:34:00
2:55 AM,32.0,25.3,76,29.80,10.0,WSW,8.1,16.1,N/A,,Overcast,240,2013-02-13 07:55:00
3:15 AM,32.0,26.2,79,29.79,10.0,SW,8.1,-,N/A,,Overcast,230,2013-02-13 08:15:00
3:35 AM,32.0,26.2,79,29.78,10.0,SW,8.1,17.3,N/A,,Overcast,220,2013-02-13 08:35:00
3:55 AM,32.2,26.4,79,29.78,10.0,WSW,8.1,-,N/A,,Overcast,250,2013-02-13 08:55:00
4:15 AM,32.5,27.3,81,29.77,10.0,SW,6.9,-,N/A,,Overcast,230,2013-02-13 09:15:00
4:35 AM,32.5,27.5,82,29.77,10.0,SW,8.1,-,N/A,,Overcast,230,2013-02-13 09:35:00
4:55 AM,32.9,27.5,81,29.76,10.0,WSW,6.9,-,N/A,,Overcast,240,2013-02-13 09:55:00
5:15 AM,33.1,27.5,80,29.76,10.0,WSW,10.4,-,N/A,,Overcast,240,2013-02-13 10:15:00
5:35 AM,33.3,27.9,81,29.75,10.0,WSW,9.2,-,N/A,,Overcast,240,2013-02-13 10:35:00
5:56 AM,33.1,28.0,82,29.74,10.0,SW,5.8,-,N/A,,Overcast,230,2013-02-13 10:56:00
6:16 AM,32.9,28.0,82,29.73,10.0,SW,8.1,-,N/A,,Overcast,220,2013-02-13 11:16:00
6:36 AM,32.9,28.2,83,29.73,10.0,SW,6.9,-,N/A,,Overcast,220,2013-02-13 11:36:00
6:56 AM,33.1,28.2,82,29.73,10.0,SW,9.2,-,N/A,,Overcast,220,2013-02-13 11:56:00
7:11 AM,32.9,27.9,82,29.72,10.0,SW,6.9,-,N/A,,Overcast,220,2013-02-13 12:11:00
7:31 AM,32.5,27.7,82,29.72,10.0,SW,9.2,-,N/A,,Overcast,220,2013-02-13 12:31:00
7:51 AM,32.0,28.0,85,29.72,7.0,SSW,6.9,-,N/A,,Overcast,210,2013-02-13 12:51:00
8:11 AM,32.0,27.9,85,29.71,7.0,SSW,3.5,-,N/A,,Mostly Cloudy,210,2013-02-13 13:11:00
8:32 AM,32.0,28.4,87,29.72,7.0,SW,4.6,-,N/A,,Overcast,220,2013-02-13 13:32:00
8:52 AM,32.7,28.8,85,29.71,7.0,SW,5.8,-,N/A,,Overcast,220,2013-02-13 13:52:00
9:12 AM,33.3,28.4,82,29.71,7.0,SSW,8.1,-,N/A,,Overcast,210,2013-02-13 14:12:00
9:32 AM,32.4,28.8,87,29.71,5.0,SW,6.9,-,N/A,,Overcast,230,2013-02-13 14:32:00
9:52 AM,32.9,28.9,85,29.71,7.0,SW,9.2,-,N/A,,Mostly Cloudy,220,2013-02-13 14:52:00
10:12 AM,33.1,29.3,86,29.70,5.0,SSW,10.4,-,N/A,,Mostly Cloudy,200,2013-02-13 15:12:00
10:32 AM,34.7,28.4,78,29.70,7.0,SW,8.1,-,N/A,,Overcast,230,2013-02-13 15:32:00
10:52 AM,34.5,28.4,78,29.70,7.0,SW,10.4,17.3,N/A,,Overcast,230,2013-02-13 15:52:00
11:13 AM,34.5,28.4,78,29.70,7.0,SW,12.7,-,N/A,,Overcast,220,2013-02-13 16:13:00
11:33 AM,34.9,28.4,77,29.70,7.0,WSW,10.4,16.1,N/A,,Overcast,240,2013-02-13 16:33:00
11:53 AM,34.7,28.2,77,29.70,7.0,SSW,9.2,17.3,N/A,,Overcast,210,2013-02-13 16:53:00
12:13 PM,34.7,28.8,79,29.69,7.0,SW,10.4,16.1,N/A,,Overcast,220,2013-02-13 17:13:00
12:33 PM,34.7,28.2,77,29.69,7.0,SSW,8.1,17.3,N/A,,Overcast,200,2013-02-13 17:33:00
12:53 PM,34.5,28.8,79,29.68,7.0,SW,10.4,-,N/A,,Overcast,230,2013-02-13 17:53:00
1:13 PM,34.7,29.3,81,29.68,7.0,SSW,9.2,-,N/A,,Mostly Cloudy,210,2013-02-13 18:13:00
1:33 PM,34.7,29.3,81,29.68,7.0,SW,10.4,16.1,N/A,,Mostly Cloudy,220,2013-02-13 18:33:00
1:53 PM,34.3,29.8,84,29.68,5.0,SSW,11.5,17.3,N/A,,Overcast,200,2013-02-13 18:53:00
2:14 PM,34.7,29.3,81,29.68,7.0,South,11.5,17.3,N/A,,Overcast,190,2013-02-13 19:14:00
2:34 PM,34.3,29.8,84,29.67,5.0,SSW,9.2,-,N/A,,Overcast,210,2013-02-13 19:34:00
2:54 PM,34.3,30.2,85,29.67,5.0,SSW,9.2,-,N/A,,Overcast,210,2013-02-13 19:54:00
3:14 PM,34.2,30.2,85,29.67,5.0,SSW,12.7,17.3,N/A,,Overcast,200,2013-02-13 20:14:00
3:34 PM,34.2,30.2,85,29.67,5.0,SSW,8.1,-,N/A,,Overcast,210,2013-02-13 20:34:00
3:54 PM,34.2,30.2,85,29.67,5.0,SSW,9.2,16.1,N/A,,Overcast,200,2013-02-13 20:54:00
4:14 PM,34.2,30.6,87,29.67,5.0,South,6.9,-,N/A,,Overcast,190,2013-02-13 21:14:00
4:34 PM,34.2,30.6,87,29.67,5.0,South,8.1,16.1,N/A,,Overcast,190,2013-02-13 21:34:00
4:55 PM,34.2,30.2,85,29.67,5.0,SSW,4.6,-,N/A,,Overcast,200,2013-02-13 21:55:00
5:15 PM,34.2,30.4,86,29.67,5.0,South,6.9,-,N/A,,Overcast,190,2013-02-13 22:15:00
5:35 PM,34.2,30.6,87,29.68,5.0,South,4.6,-,N/A,,Overcast,170,2013-02-13 22:35:00
5:55 PM,34.2,30.6,87,29.68,5.0,South,6.9,-,N/A,,Overcast,190,2013-02-13 22:55:00
6:15 PM,34.2,30.6,87,29.68,5.0,South,9.2,-,N/A,,Overcast,190,2013-02-13 23:15:00
6:35 PM,34.2,30.6,87,29.68,7.0,South,8.1,-,N/A,,Overcast,170,2013-02-13 23:35:00
6:55 PM,34.2,30.6,87,29.68,7.0,South,6.9,-,N/A,,Overcast,180,2013-02-13 23:55:00
7:15 PM,34.3,30.6,86,29.67,7.0,SSE,4.6,-,N/A,,Overcast,160,2013-02-14 00:15:00
7:35 PM,34.3,30.4,85,29.68,7.0,South,5.8,-,N/A,,Overcast,180,2013-02-14 00:35:00
7:56 PM,34.2,30.6,87,29.68,7.0,South,6.9,-,N/A,,Overcast,170,2013-02-14 00:56:00
8:16 PM,34.2,30.6,87,29.68,7.0,SSW,5.8,-,N/A,,Overcast,200,2013-02-14 01:16:00
8:36 PM,34.2,30.6,87,29.68,7.0,South,6.9,-,N/A,,Overcast,180,2013-02-14 01:36:00
8:56 PM,34.3,30.6,86,29.68,7.0,SSW,5.8,-,N/A,,Overcast,200,2013-02-14 01:56:00
9:11 PM,34.3,30.6,86,29.68,7.0,SSW,4.6,-,N/A,,Overcast,200,2013-02-14 02:11:00
9:31 PM,34.2,30.6,87,29.68,7.0,SSW,8.1,-,N/A,,Overcast,210,2013-02-14 02:31:00
9:51 PM,34.2,30.6,87,29.67,7.0,South,5.8,-,N/A,,Overcast,190,2013-02-14 02:51:00
10:11 PM,34.2,30.7,87,29.67,7.0,SSW,5.8,-,N/A,,Overcast,210,2013-02-14 03:11:00
10:32 PM,34.2,30.6,87,29.67,7.0,SW,4.6,-,N/A,,Overcast,220,2013-02-14 03:32:00
10:52 PM,34.2,30.2,85,29.67,7.0,SSW,6.9,-,N/A,,Overcast,210,2013-02-14 03:52:00
11:12 PM,34.0,30.6,87,29.66,7.0,SW,3.5,-,N/A,,Overcast,220,2013-02-14 04:12:00
11:32 PM,33.8,30.6,88,29.66,5.0,SSW,4.6,-,N/A,,Overcast,200,2013-02-14 04:32:00
11:52 PM,33.8,30.9,89,29.66,5.0,SSW,3.5,-,N/A,,Overcast,200,2013-02-14 04:52:00